Terminal Aerodrome Forecast
Issued by NWS

Current Version | Previous Version | Graphics & Text | Print | Product List | Glossary On
Versions: 1 2 3 4 5 6 7 8 9 10 11 12 13 14 15 16 17
000
FTUS41 KPBZ 161133
TAFHLG
TAF
KHLG 161133Z 1612/1712 VRB03KT P6SM BKN040
      TEMPO 1612/1613 4SM BR
     FM161500 32005KT P6SM SCT035=

USA.gov is the U.S. government's official web portal to all federal, state and local government web resources and services.